This is the latest recevied weather packets stored in our database for station/object WB0OCV. If no packets are shown the sender has not sent any weather packets the latest 10 day(s).
| Time | Temp. | Humidity | Pressure | Rain* | Wind** | Luminosity | Snow |
|---|---|---|---|---|---|---|---|
| 1777465226 | 7.78° C | 96% | 1018.8 hPa | 0 mm | - | 112 W/m² | - |
| 1777464921 | 7.78° C | 97% | 1019 hPa | 0 mm | - | 148 W/m² | - |
| 1777464617 | 7.78° C | 97% | 1019.2 hPa | 0 mm | - | 94 W/m² | - |
| 1777464313 | 7.78° C | 97% | 1019.3 hPa | 0 mm | - | 109 W/m² | - |
| 1777464009 | 7.78° C | 97% | 1019.6 hPa | 0 mm | - | 100 W/m² | - |
| 1777463703 | 7.22° C | 97% | 1019.4 hPa | 0 mm | - | 83 W/m² | - |
| 1777463398 | 7.22° C | 97% | 1019.6 hPa | 0 mm | - | 86 W/m² | - |
| 1777463095 | 7.22° C | 98% | 1019.4 hPa | 0 mm | - | 77 W/m² | - |
| 1777462791 | 7.22° C | 98% | 1019.5 hPa | 0 mm | - | 82 W/m² | - |
| 1777462486 | 7.22° C | 98% | 1019.4 hPa | 0 mm | - | 74 W/m² | - |
| 1777462183 | 7.22° C | 98% | 1019.4 hPa | 0 mm | - | 49 W/m² | - |
| 1777461879 | 7.22° C | 98% | 1019.2 hPa | 0 mm | - | 47 W/m² | - |
| 1777461576 | 7.22° C | 98% | 1019 hPa | 0 mm | - | 46 W/m² | - |
| 1777461271 | 7.22° C | 98% | 1018.9 hPa | 0 mm | - | 43 W/m² | - |
| 1777460967 | 7.22° C | 98% | 1018.9 hPa | 0 mm | - | 37 W/m² | - |
| 1777460663 | 7.22° C | 98% | 1018.6 hPa | 0 mm | - | 36 W/m² | - |
| 1777460359 | 7.22° C | 98% | 1018.6 hPa | 0 mm | - | 34 W/m² | - |
| 1777460055 | 7.22° C | 98% | 1018.5 hPa | 0 mm | - | 30 W/m² | - |
| 1777459752 | 7.22° C | 98% | 1018.6 hPa | 0 mm | - | 27 W/m² | - |
| 1777459449 | 7.22° C | 98% | 1018.8 hPa | 0 mm | - | 25 W/m² | - |
| 1777459147 | 7.22° C | 98% | 1018.7 hPa | 0 mm | - | 22 W/m² | - |
| 1777458844 | 7.22° C | 98% | 1019 hPa | 0 mm | - | 17 W/m² | - |
| 1777458540 | 7.22° C | 98% | 1018.7 hPa | 0 mm | - | 15 W/m² | - |
| 1777458237 | 7.22° C | 98% | 1018.7 hPa | 0 mm | - | 14 W/m² | - |
| 1777457932 | 7.22° C | 98% | 1018.7 hPa | 0 mm | - | 11 W/m² | - |
* Rain latest hour (hover to see other rain measurements)
** Current wind speed in m/s (hover to see current wind gust speed)